Location: Étouvelles
(49.5207°N, 3.5808°E)
Time: 09:58:55
(UTC+00:00)

CZ-4B R/B - Pass Details

Date: 03 February 2023
Orbit: 809 x 881 km, 99.0° (Epoch: 23 March)

Event Time Altitude Azimuth Distance (km) Brightness Sun altitude
Rises 17:49:32 0° 141° (SE) 3,339 6.0 -10.8°
Reaches altitude 10° 17:51:56 10° 135° (SE) 2,419 5.3 -11.2°
Maximum altitude 17:56:58 43° 65° (ENE) 1,152 3.5 -12.0°
Drops below altitude 10° 18:02:07 10° 355° (N) 2,477 5.6 -12.8°
Sets 18:04:36 0° 350° (N) 3,428 6.4 -13.2°
